Location: Evergreen Manor
(41.4083°N, 81.4939°W)
Time: 18:43:15
(UTC+00:00)

GEOS 3 Rocket - Pass Details

Date: 11 December 2019
Orbit: 782 x 837 km, 115.0° (Epoch: 28 January)

Event Time Altitude Azimuth Distance (km) Brightness Sun altitude
Rises 10:00:35 0° 126° (SE) 3,260 7.6 -29.4°
Reaches altitude 10° 10:02:54 10° 122° (ESE) 2,338 6.8 -28.9°
Maximum altitude 10:07:46 50° 48° (NE) 1,002 4.2 -28.0°
Enters shadow 10:08:47 43° 12° (NNE) 1,096 4.2 -27.8°
